Weather History for KCNB - January, 2014

Change the Weather History Date:

Thursday, January 30, 2014

  Actual Average (KMML) Record (KMML)
Temperature  
Mean Temperature 10 °F -  
Max Temperature 20 °F 26 °F 54 °F (1989)
Min Temperature -1 °F 3 °F -25 °F (1966)
Degree Days  
Heating Degree Days 56    
Moisture  
Dew Point 3 °F    
Average Humidity 80    
Maximum Humidity 93    
Minimum Humidity 71    
Precipitation  
Precipitation 0.00 in - - ()
Sea Level Pressure  
Sea Level Pressure 29.79 in    
Wind  
Wind Speed 12 mph (NW)    
Max Wind Speed 23 mph    
Max Gust Speed 31 mph    
Visibility 7 miles    
Events Snow    
Averages and records for this station are not official NWS values.
T = Trace of Precipitation, MM = Missing Value Source: NWS Daily Summary

Daily Weather History Graph

Daily Weather History Graph

Search for Another Location

Airport or City:

Trip Planner

Search our weather history database for the weather conditions in past years. The results will help you decide how hot, cold, wet, or windy it might be!

Date:

Astronomy

Jan. 30, 2014 Rise Set
Actual Time 7:46 AM CST 5:30 PM CST
Civil Twilight 7:15 AM CST 6:02 PM CST
Nautical Twilight 6:39 AM CST 6:37 PM CST
Astronomical Twilight 6:05 AM CST 7:11 PM CST
Moon 7:11 AM CST (1/30) 5:46 PM CST (1/30)
Length of Visible Light 10h 47m
Length of Day
9h 44m
Waning Crescent, 0% of the Moon is Illuminated
Jan 30
Waning Crescent
Jan 30
New
Feb 6
First Quarter
Feb 14
Full
Feb 22
Last Quarter

Hourly Weather History & Observations

Time (CST) Temp. Windchill Dew Point Humidity Pressure Visibility Wind Dir Wind Speed Gust Speed Precip Events Conditions
12:15 AM 20.8 °F 10.4 °F 15.3 °F 79% 29.54 in 10.0 mi NNE 9.2 mph - N/A   Overcast
12:35 AM 19.9 °F 10.1 °F 14.5 °F 80% 29.53 in 7.0 mi NNE 8.1 mph - N/A Snow Light Snow
12:55 AM 19.2 °F 10.2 °F 14.2 °F 81% 29.52 in 10.0 mi North 6.9 mph - N/A   Mostly Cloudy
1:15 AM 18.9 °F 12.1 °F 14.0 °F 81% 29.51 in 10.0 mi North 4.6 mph - N/A   Scattered Clouds
1:35 AM 18.5 °F 8.4 °F 14.4 °F 84% 29.50 in 10.0 mi NNE 8.1 mph - N/A   Mostly Cloudy
1:55 AM 18.5 °F 9.3 °F 14.0 °F 83% 29.49 in 10.0 mi NNE 6.9 mph - N/A   Overcast
2:14 AM 18.3 °F 4.6 °F 13.3 °F 81% 29.47 in 10.0 mi NNE 13.8 mph - N/A   Overcast
2:34 AM 18.0 °F 7.7 °F 13.1 °F 81% 29.49 in 10.0 mi NNE 8.1 mph - N/A   Overcast
2:55 AM 17.6 °F 5.0 °F 13.3 °F 83% 29.50 in 10.0 mi North 11.5 mph - N/A   Overcast
3:14 AM 17.4 °F 5.4 °F 13.6 °F 85% 29.50 in 10.0 mi North 10.4 mph 16.1 mph N/A   Overcast
3:35 AM 17.1 °F 4.3 °F 14.0 °F 88% 29.49 in 2.0 mi North 11.5 mph - N/A Snow Light Snow
3:55 AM 16.7 °F 3.8 °F 14.0 °F 89% 29.48 in 3.0 mi North 11.5 mph - N/A Snow Light Snow
4:14 AM 16.5 °F 5.1 °F 14.4 °F 91% 29.49 in 3.0 mi North 9.2 mph - N/A Snow Light Snow
4:35 AM 16.2 °F 3.2 °F 14.0 °F 91% 29.49 in 1.8 mi North 11.5 mph - N/A Snow Light Snow
4:55 AM 15.8 °F 2.1 °F 14.0 °F 93% 29.52 in 1.2 mi North 12.7 mph 17.3 mph N/A Snow Light Snow
5:14 AM 15.8 °F 2.1 °F 13.8 °F 92% 29.54 in 1.0 mi North 12.7 mph - N/A Snow Snow
5:35 AM 15.3 °F 2.8 °F 13.5 °F 93% 29.55 in 1.2 mi North 10.4 mph - N/A Snow Light Snow
5:55 AM 14.9 °F 0.3 °F 13.1 °F 93% 29.55 in 1.0 mi North 13.8 mph - N/A Snow Snow
6:14 AM 14.9 °F 1.6 °F 13.1 °F 93% 29.57 in 1.0 mi NNW 11.5 mph - N/A Snow Snow
6:35 AM 14.7 °F 0.1 °F 12.7 °F 92% 29.58 in 1.5 mi North 13.8 mph 19.6 mph N/A Snow Light Snow
6:55 AM 14.5 °F 0.5 °F 12.2 °F 90% 29.60 in 1.8 mi NNW 12.7 mph - N/A Snow Light Snow
7:14 AM 14.5 °F -0.2 °F 12.2 °F 90% 29.60 in 3.0 mi NNW 13.8 mph 20.7 mph N/A Snow Light Snow
7:34 AM 14.0 °F -2.5 °F 11.3 °F 89% 29.62 in 4.0 mi North 17.3 mph 23.0 mph N/A Snow Light Snow
7:55 AM 13.6 °F -2.4 °F 10.9 °F 89% 29.64 in 1.0 mi NNW 16.1 mph 21.9 mph N/A Snow Light Snow
8:14 AM 13.1 °F -4.2 °F 10.4 °F 89% 29.66 in 1.5 mi NNW 18.4 mph 25.3 mph N/A Snow Light Snow
8:34 AM 12.6 °F -6.6 °F 9.5 °F 88% 29.68 in 1.0 mi NNW 23.0 mph 28.8 mph N/A Snow Light Snow
8:55 AM 10.4 °F -9.1 °F 7.3 °F 87% 29.71 in 1.5 mi NNW 21.9 mph 31.1 mph N/A Snow Light Snow
9:14 AM 9.0 °F -11.4 °F 5.2 °F 85% 29.72 in 2.5 mi NNW 23.0 mph 28.8 mph N/A Snow Light Snow
9:35 AM 8.1 °F -11.7 °F 3.9 °F 83% 29.73 in 4.0 mi NNW 20.7 mph 29.9 mph N/A Snow Light Snow
9:55 AM 7.2 °F -12.9 °F 3.0 °F 83% 29.76 in 5.0 mi NW 20.7 mph 25.3 mph N/A   Overcast
10:14 AM 7.2 °F -12.9 °F 2.7 °F 82% 29.78 in 3.0 mi NNW 20.7 mph 24.2 mph N/A   Haze
10:35 AM 7.2 °F -11.9 °F 2.1 °F 80% 29.80 in 7.0 mi NW 18.4 mph 27.6 mph N/A   Mostly Cloudy
10:55 AM 7.0 °F -11.0 °F 0.7 °F 75% 29.81 in 7.0 mi NW 16.1 mph 29.9 mph N/A   Scattered Clouds
11:14 AM 6.6 °F -13.1 °F -0.0 °F 74% 29.82 in 10.0 mi NNW 19.6 mph 24.2 mph N/A   Clear
11:35 AM 6.1 °F -14.3 °F -0.8 °F 73% 29.83 in 10.0 mi NNW 20.7 mph 28.8 mph N/A   Clear
11:55 AM 5.7 °F -13.2 °F -1.3 °F 73% 29.84 in 10.0 mi NNW 17.3 mph 26.5 mph N/A   Clear
12:14 PM 5.0 °F -14.2 °F -2.0 °F 73% 29.85 in 7.0 mi NW 17.3 mph 24.2 mph N/A   Scattered Clouds
12:35 PM 5.0 °F -15.7 °F -2.0 °F 73% 29.86 in 10.0 mi NW 20.7 mph 26.5 mph N/A   Scattered Clouds
12:55 PM 4.8 °F -14.4 °F -2.0 °F 73% 29.87 in 5.0 mi NW 17.3 mph - N/A   Haze
1:14 PM 5.0 °F -14.7 °F -2.4 °F 72% 29.87 in 10.0 mi NNW 18.4 mph 23.0 mph N/A   Scattered Clouds
1:35 PM 5.0 °F -14.2 °F -2.0 °F 73% 29.87 in 7.0 mi NW 17.3 mph 21.9 mph N/A   Clear
1:55 PM 5.4 °F -13.1 °F -1.7 °F 73% 29.88 in 7.0 mi NW 16.1 mph 25.3 mph N/A   Clear
2:14 PM 5.5 °F -12.3 °F -1.7 °F 72% 29.89 in 7.0 mi NW 15.0 mph 20.7 mph N/A   Scattered Clouds
2:35 PM 5.4 °F -13.1 °F -1.8 °F 72% 29.88 in 10.0 mi NNW 16.1 mph 20.7 mph N/A   Clear
2:55 PM 5.5 °F -12.3 °F -1.8 °F 72% 29.89 in 10.0 mi NNW 15.0 mph - N/A   Clear
3:14 PM 5.7 °F -12.6 °F -1.5 °F 72% 29.90 in 10.0 mi NW 16.1 mph 19.6 mph N/A   Clear
3:35 PM 5.9 °F -10.5 °F -1.7 °F 71% 29.91 in 10.0 mi NW 12.7 mph - N/A   Clear
3:55 PM 6.3 °F -11.3 °F -1.3 °F 71% 29.92 in 10.0 mi NW 15.0 mph - N/A   Clear
4:15 PM 6.4 °F -11.1 °F -1.3 °F 71% 29.92 in 10.0 mi NW 15.0 mph 20.7 mph N/A   Clear
4:34 PM 6.4 °F -9.8 °F -0.9 °F 72% 29.93 in 10.0 mi NW 12.7 mph - N/A   Clear
4:55 PM 5.9 °F -9.7 °F -0.9 °F 73% 29.94 in 10.0 mi WNW 11.5 mph - N/A   Clear
5:15 PM 5.5 °F -11.6 °F -1.5 °F 73% 29.95 in 10.0 mi NW 13.8 mph - N/A   Clear
5:34 PM 4.5 °F -10.7 °F -2.2 °F 74% 29.96 in 10.0 mi WNW 10.4 mph - N/A   Clear
5:55 PM 2.8 °F -10.7 °F -3.1 °F 76% 29.97 in 10.0 mi WNW 8.1 mph - N/A   Clear
6:14 PM 1.8 °F -10.8 °F -3.6 °F 78% 29.97 in 10.0 mi West 6.9 mph - N/A   Clear
6:35 PM 0.9 °F -10.5 °F -4.2 °F 79% 29.98 in 10.0 mi WNW 5.8 mph - N/A   Clear
6:55 PM 1.4 °F -12.5 °F -3.6 °F 79% 29.99 in 10.0 mi NW 8.1 mph - N/A   Clear
7:15 PM 1.4 °F -12.5 °F -4.0 °F 78% 29.99 in 10.0 mi NW 8.1 mph - N/A   Clear
7:35 PM 1.6 °F -13.3 °F -4.0 °F 77% 29.99 in 10.0 mi WNW 9.2 mph - N/A   Clear
7:54 PM 1.2 °F -14.7 °F -4.4 °F 77% 30.00 in 10.0 mi NW 10.4 mph - N/A   Clear
8:15 PM 1.2 °F -14.7 °F -4.4 °F 77% 30.01 in 10.0 mi NW 10.4 mph - N/A   Clear
8:35 PM 0.1 °F -16.0 °F -5.3 °F 78% 30.03 in 10.0 mi WNW 10.4 mph - N/A   Clear
8:54 PM -0.4 °F -15.7 °F -5.8 °F 78% 30.03 in 10.0 mi WNW 9.2 mph - N/A   Clear
9:15 PM 0.1 °F -15.1 °F -5.1 °F 79% 30.05 in 10.0 mi West 9.2 mph - N/A   Clear
9:34 PM 0.3 °F -14.8 °F -5.1 °F 78% 30.05 in 10.0 mi West 9.2 mph - N/A   Clear
9:54 PM 0.5 °F -14.6 °F -4.9 °F 78% 30.06 in 10.0 mi West 9.2 mph - N/A   Clear
10:15 PM -0.2 °F -15.5 °F -5.3 °F 79% 30.07 in 10.0 mi West 9.2 mph - N/A   Clear
10:34 PM -0.4 °F -14.7 °F -5.8 °F 78% 30.07 in 10.0 mi West 8.1 mph - N/A   Clear
10:55 PM -0.0 °F -16.3 °F -5.6 °F 77% 30.07 in 10.0 mi West 10.4 mph - N/A   Clear
11:14 PM -1.1 °F -14.3 °F -6.5 °F 78% 30.07 in 10.0 mi WSW 6.9 mph - N/A   Scattered Clouds
11:35 PM -0.0 °F -17.1 °F -6.2 °F 75% 30.07 in 10.0 mi WNW 11.5 mph - N/A   Clear
11:54 PM 0.1 °F -16.0 °F -6.5 °F 74% 30.07 in 10.0 mi West 10.4 mph - N/A   Clear